TimePST,TemperatureF,Dew PointF,Humidity,Sea Level PressureIn,VisibilityMPH,Wind Direction,Wind SpeedMPH,Gust SpeedMPH,PrecipitationIn,Events,Conditions,WindDirDegrees,DateUTC
12:53 AM,36.0,33.1,89,29.85,10.0,SW,9.2,-,N/A,,Overcast,220,2013-12-21 08:53:00
1:13 AM,37.0,34.0,89,29.78,10.0,SSW,9.2,-,N/A,,Overcast,210,2013-12-21 09:13:00
1:53 AM,37.9,34.0,86,29.85,10.0,SW,9.2,-,N/A,,Overcast,230,2013-12-21 09:53:00
2:53 AM,37.0,33.1,86,29.86,10.0,WSW,12.7,-,N/A,,Mostly Cloudy,250,2013-12-21 10:53:00
3:08 AM,37.9,33.1,83,29.80,10.0,West,12.7,-,N/A,,Mostly Cloudy,260,2013-12-21 11:08:00
3:20 AM,37.0,33.1,86,29.80,10.0,West,13.8,-,N/A,,Mostly Cloudy,270,2013-12-21 11:20:00
3:53 AM,39.0,33.1,79,29.86,10.0,West,17.3,28.8,N/A,,Mostly Cloudy,270,2013-12-21 11:53:00
4:49 AM,37.4,33.8,87,29.81,10.0,West,26.5,33.4,N/A,,Scattered Clouds,270,2013-12-21 12:49:00
4:53 AM,39.0,33.1,79,29.87,10.0,West,25.3,33.4,N/A,,Partly Cloudy,270,2013-12-21 12:53:00
5:53 AM,37.9,33.1,83,29.90,10.0,West,21.9,32.2,N/A,,Clear,270,2013-12-21 13:53:00
6:53 AM,37.0,32.0,82,29.94,10.0,West,10.4,-,N/A,,Clear,280,2013-12-21 14:53:00
7:35 AM,35.1,30.9,85,29.91,10.0,SE,12.7,-,N/A,,Mostly Cloudy,130,2013-12-21 15:35:00
7:53 AM,37.0,32.0,82,29.99,10.0,SSE,13.8,-,N/A,,Overcast,160,2013-12-21 15:53:00
8:53 AM,39.9,32.0,73,30.01,10.0,WNW,16.1,19.6,N/A,,Mostly Cloudy,290,2013-12-21 16:53:00
9:12 AM,39.9,32.0,73,29.96,10.0,West,13.8,-,N/A,,Scattered Clouds,280,2013-12-21 17:12:00
9:53 AM,42.1,32.0,67,30.03,10.0,West,8.1,-,N/A,,Scattered Clouds,270,2013-12-21 17:53:00
10:02 AM,42.1,33.1,70,29.99,10.0,SW,4.6,-,N/A,,Mostly Cloudy,220,2013-12-21 18:02:00
10:16 AM,43.0,32.0,65,29.99,10.0,West,12.7,-,N/A,,Overcast,270,2013-12-21 18:16:00
10:33 AM,43.0,32.0,65,29.99,10.0,West,13.8,-,N/A,,Mostly Cloudy,280,2013-12-21 18:33:00
10:53 AM,42.1,30.9,65,30.04,10.0,West,12.7,-,N/A,,Scattered Clouds,280,2013-12-21 18:53:00
11:53 AM,42.1,30.9,65,30.03,10.0,West,11.5,-,N/A,,Overcast,280,2013-12-21 19:53:00
12:53 PM,39.9,34.0,79,30.05,9.0,WNW,6.9,-,0.00,Rain,Light Rain,300,2013-12-21 20:53:00
1:53 PM,42.1,33.1,70,30.04,10.0,West,5.8,-,0.00,,Mostly Cloudy,270,2013-12-21 21:53:00
2:53 PM,42.1,32.0,67,30.05,10.0,West,9.2,-,N/A,,Overcast,270,2013-12-21 22:53:00
3:53 PM,41.0,32.0,70,30.06,10.0,NW,4.6,-,N/A,,Mostly Cloudy,320,2013-12-21 23:53:00
4:53 PM,33.1,28.9,85,30.09,10.0,WNW,3.5,-,N/A,,Mostly Cloudy,300,2013-12-22 00:53:00
5:53 PM,33.1,28.9,85,30.11,10.0,West,4.6,-,N/A,,Overcast,270,2013-12-22 01:53:00
6:53 PM,28.0,26.1,92,30.13,10.0,West,5.8,-,N/A,,Clear,270,2013-12-22 02:53:00
7:53 PM,28.0,27.0,96,30.13,10.0,WSW,6.9,-,N/A,,Mostly Cloudy,250,2013-12-22 03:53:00
8:53 PM,27.0,26.1,96,30.15,10.0,NW,3.5,-,N/A,,Overcast,310,2013-12-22 04:53:00
9:53 PM,26.1,24.1,92,30.16,10.0,Calm,Calm,-,N/A,,Partly Cloudy,0,2013-12-22 05:53:00
10:53 PM,28.9,27.0,92,30.17,10.0,West,3.5,-,N/A,,Overcast,260,2013-12-22 06:53:00
11:53 PM,28.9,28.0,96,30.17,10.0,WSW,3.5,-,N/A,,Overcast,250,2013-12-22 07:53:00